Header for Extended Forecast Station List Page

Search by: ID | Name | Date | Parm | Value | Avg | % Avg
Sort by: ID | Name | Date | Parm | Value | Avg | % Avg

Enter search or view all records.

Click on id for station plot
#IDNameDateParmValueAvg% Avg
0LYDM8KOOTENAI-LIBBY DAM08-22-2016INFLOW (KAF)1109125488
1LEOI1KOOTENAI-AT LEONIA08-22-2016DISCHARGE (KAF)23921868128
2BFEI1KOOTENAI-AT BONNERS FERRY08-22-2016STAGE (FT)MMM
3FCFM8NF FLATHEAD-NEAR COLUMBIA FALLS08-22-2016DISCHARGE (KAF)21923992
4WGCM8MF FLATHEAD-NEAR WEST GLACIER08-22-2016DISCHARGE (KAF)14319872
5HHWM8SF FLATHEAD-HUNGRY HORSE DAM08-22-2016INFLOW (KAF)16323469
6CFMM8FLATHEAD-AT COLUMBIA FALLS08-22-2016DISCHARGE (KAF)919115779
7DLGM8CLARK FORK-AT DEER LODGE08-22-2016DISCHARGE (KAF)385767
8DRMM8CLARK FORK-NR DRUMMOND08-22-2016DISCHARGE (KAF)94MM
9RCCM8ROCK CREEK-NEAR CLINTON08-22-2016DISCHARGE (KAF)425872
10BONM8BLACKFOOT-NEAR BONNER08-22-2016DISCHARGE (KAF)10115366
11ABOM8CLARK FORK-ABOVE MISSOULA08-22-2016DISCHARGE (KAF)24336766
12BITM8BITTERROOT-NEAR MISSOULA08-22-2016DISCHARGE (KAF)17323175
13BELM8CLARK FORK-BELOW MISSOULA08-22-2016DISCHARGE (KAF)41660469
14STRM8ST. REGIS-NEAR ST. REGIS08-22-2016DISCHARGE (KAF)203162
15SRGM8CLARK FORK-AT ST REGIS08-22-2016DISCHARGE (KAF)52578367
16KERM8FLATHEAD-KERR DAM08-22-2016INFLOW (KAF)1012139972
17NOXM8CLARK FORK-NOXON RAPIDS DAM08-22-2016INFLOW (KAF)2218305973
18CABI1CLARK FORK-CABINET GORGE DAM08-22-2016INFLOW (KAF)2436320876
19PRTI1PRIEST-NEAR PRIEST RIVER08-22-2016DISCHARGE (KAF)9019347
20ALFW1PEND OREILLE-ALBENI FALLS DAM08-22-2016INFLOW (KAF)2575361371
21HOPI1PEND OREILLE-PEND OREILLE LAKE NR HOPE08-22-2016LAKE ELEVATION (FT)MMM
22COEI1COEUR D ALENE-COEUR D ALENE LAKE08-22-2016INFLOW (KAF)22333966
23SPOW1SPOKANE-AT SPOKANE08-22-2016DISCHARGE (KAF)422MM
24LLKW1SPOKANE-AT LONGLAKE08-22-2016INFLOW (KAF)57774478
25SATI1ST MARIES-NEAR SANTA08-22-2016DISCHARGE (KAF)142069
26SJMI1ST JOE-AT ST MARIES08-22-2016STAGE (FT)MMM
27CIBW1COLUMBIA-AT INTL BOUNDARY08-22-2016DISCHARGE (KAF)18277MM
28LAUW1KETTLE-AT LAURIER08-22-2016DISCHARGE (KAF)9212872
29GCDW1COLUMBIA-GRAND COULEE DAM08-22-2016INFLOW (KAF)1894117809106
30CHJW1COLUMBIA-CHIEF JOSEPH DAM08-22-2016INFLOW (KAF)180291906295
31TONW1OKANOGAN-NEAR TONASKET08-22-2016DISCHARGE (KAF)21028075
32PATW1METHOW-NEAR PATEROS08-22-2016DISCHARGE (KAF)8910485
33WELW1COLUMBIA-WELLS DAM08-22-2016INFLOW (KAF)183281937795
34CHDW1CHELAN-LAKE CHELAN DAM08-22-2016INFLOW (KAF)13317178
35RRHW1COLUMBIA-ROCKY REACH DAM08-22-2016INFLOW (KAF)186201984494
36ARDW1ENTIAT-NEAR ARDENVOIR08-22-2016DISCHARGE (KAF)212388
37PESW1WENATCHEE-AT PESHASTIN08-22-2016DISCHARGE (KAF)23124993
38WANW1COLUMBIA-WANAPUM DAM08-22-2016INFLOW (KAF)1886518845100
39PRWW1COLUMBIA-PRIEST RAPIDS DAM08-22-2016INFLOW (KAF)188691911599
40KEDW1YAKIMA-KEECHELUS LAKE08-22-2016INFLOW (KAF)4538119
41KADW1KACHESS-KACHESS DAM08-22-2016INFLOW (KAF)2927106
42EASW1YAKIMA-AT EASTON08-22-2016DISCHARGE (KAF)10761176
43CLUW1CLE ELUM-CLE ELUM LAKE08-22-2016INFLOW (KAF)648079
44TNAW1TEANAWAY-BELOW FORKS08-22-2016DISCHARGE (KAF)101760
45UMTW1YAKIMA-AT UMTANUM08-22-2016DISCHARGE (KAF)401364110
46BUDW1BUMPING-BUMPING LAKE DAM08-22-2016INFLOW (KAF)212680
47CLFW1NACHES-NEAR CLIFFDEL08-22-2016DISCHARGE (KAF)668182
48RILW1TIETON-RIMROCK LAKE NEAR RIMROCK08-22-2016INFLOW (KAF)6161100
49NACW1NACHES-NEAR NACHES08-22-2016DISCHARGE (KAF)21087243
50PARW1YAKIMA-NEAR PARKER08-22-2016DISCHARGE (KAF)460252182
51KIOW1YAKIMA-AT KIONA08-22-2016DISCHARGE (KAF)719539133
52IPDI1HENRYS FORK-ISLAND PARK DAM08-22-2016INFLOW (KAF)12813198
53CHEI1FALL RIVER-NEAR CHESTER08-22-2016DISCHARGE (KAF)909892
54ANTI1HENRYS FORK-AT ST. ANTHONY08-22-2016DISCHARGE (KAF)25932580
55TEAI1TETON-NEAR ST. ANTHONY08-22-2016DISCHARGE (KAF)11413684
56REXI1HENRYS FORK-AT REXBURG08-22-2016DISCHARGE (KAF)33140382
57JLKW4SNAKE-JACKSON LAKE AT DAM08-22-2016INFLOW (KAF)8712172
58JKSW4SNAKE-NEAR JACKSON08-22-2016DISCHARGE (KAF)577528109
59ALPW4SNAKE-NEAR ALPINE08-22-2016DISCHARGE (KAF)62063598
60PLDI1SF SNAKE-PALISADES DAM08-22-2016INFLOW (KAF)86192893
61HEII1SNAKE-NEAR HEISE08-22-2016DISCHARGE (KAF)13061066123
62RIDI1WILLOW CREEK-RIRIE DAM08-22-2016INFLOW (KAF)4761
63SIFI1SNAKE-AB EAGLE ROCK NR IDAHO FALLS08-22-2016DISCHARGE (KAF)1187960124
64SHYI1SNAKE-NEAR SHELLEY08-22-2016DISCHARGE (KAF)1147831138
65SNAI1SNAKE-AT BLACKFOOT08-22-2016DISCHARGE (KAF)894616145
66BFTI1SNAKE-NEAR BLACKFOOT08-22-2016DISCHARGE (KAF)910647141
67PIHI1PORTNEUF-AT POCATELLO08-22-2016DISCHARGE (KAF)334376
68AFRI1SNAKE-AMERICAN FALLS RESERVOIR08-22-2016INFLOW (KAF)15241316116
69MILI1SNAKE-AT MILNER08-22-2016DISCHARGE (KAF)7526229
70HOTI1BRUNEAU-NEAR HOT SPRINGS08-22-2016DISCHARGE (KAF)2322104
71SWAI1SNAKE-BELOW SWAN FALLS08-22-2016DISCHARGE (KAF)1778228578
72HWRI1BIG LOST-AT HOWELL RANCH NEAR CHILLY08-22-2016DISCHARGE (KAF)212875
73MACI1BIG LOST-MACKAY RESERVOIR NEAR MACKAY08-22-2016INFLOW (KAF)3414237
74HALI1BIG WOOD-AT HAILEY08-22-2016DISCHARGE (KAF)404686
75MAGI1BIG WOOD-MAGIC DAM08-22-2016INFLOW (KAF)212877
76LWRI1LITTLE WOOD-LITTLE WOOD DAM08-22-2016INFLOW (KAF)151599
77OWYO3OWYHEE-OWYHEE DAM08-22-2016INFLOW (KAF)6258108
78ARAI1SF BOISE-ANDERSON RANCH DAM08-22-2016INFLOW (KAF)676899
79LUCI1BOISE-LUCKY PEAK DAM08-22-2016INFLOW (KAF)243MM
80BIGI1BOISE-AT GLENWOOD BRIDGE08-22-2016DISCHARGE (KAF)10686123
81PARI1BOISE-NEAR PARMA08-22-2016DISCHARGE (KAF)22322699
82WRMO3MALHEUR-WARM SPRINGS DAM08-22-2016INFLOW (KAF)7889
83BERO3MALHEUR-AGENCY VALLEY DAM08-22-2016INFLOW (KAF)91086
84BULO3BULLY CREEK-BULLY CREEK DAM08-22-2016INFLOW (KAF)0162
85VALO3MALHEUR-NEAR VALE08-22-2016DISCHARGE (KAF)212775
86CSDI1NF PAYETTE-CASCADE DAM08-22-2016INFLOW (KAF)8179103
87DEDI1DEADWOOD-NEAR LOWMAN08-22-2016INFLOW (KAF)161890
88EMMI1PAYETTE-NEAR EMMETT08-22-2016DISCHARGE (KAF)27137073
89WSRI1WEISER-NEAR WEISER08-22-2016DISCHARGE (KAF)435085
90WEII1SNAKE-AT WEISER08-22-2016DISCHARGE (KAF)2542330777
91BRNI1SNAKE-BROWNLEE DAM08-22-2016INFLOW (KAF)2710337680
92WHBI1SALMON-AT WHITEBIRD08-22-2016DISCHARGE (KAF)921112282
93TRYO3GRANDE RONDE-TROY08-22-2016DISCHARGE (KAF)12421757
94ANAW1SNAKE-NEAR ANATONE08-22-2016DISCHARGE (KAF)3428493469
95ORFI1CLEARWATER-AT OROFINO08-22-2016DISCHARGE (KAF)32851664
96DWRI1NF CLEARWATER-DWORSHAK DAM08-22-2016INFLOW (KAF)29438676
97SPDI1CLEARWATER-AT SPALDING08-22-2016DISCHARGE (KAF)1020121384
98LGDW1SNAKE-LOWER GRANITE DAM08-22-2016INFLOW (KAF)4448627571
99LGSW1SNAKE-LITTLE GOOSE DAM08-22-2016INFLOW (KAF)4417630970
100LMNW1SNAKE-LOWER MONUMENTAL DAM08-22-2016INFLOW (KAF)4406632270
101IHDW1SNAKE-ICE HARBOR DAM08-22-2016INFLOW (KAF)4420624371
102TCHW1WALLA WALLA-NEAR TOUCHET08-22-2016DISCHARGE (KAF)283679
103MCDW1COLUMBIA-MCNARY DAM08-22-2016INFLOW (KAF)240222650691
104GIBO3UMATILLA-NEAR GIBBON08-22-2016DISCHARGE (KAF)141880
105PDTO3UMATILLA-AT PENDLETON08-22-2016DISCHARGE (KAF)202970
106MYKO3MCKAY CREEK-NEAR PILOT ROCK08-22-2016DISCHARGE (KAF)54109
107UMAO3UMATILLA-NEAR UMATILLA08-22-2016DISCHARGE (KAF)4928175
108MONO3NF JOHN DAY-AT MONUMENT08-22-2016DISCHARGE (KAF)304666
109SERO3JOHN DAY-AT SERVICE CK08-22-2016DISCHARGE (KAF)558862
110JDAO3COLUMBIA-JOHN DAY DAM08-22-2016INFLOW (KAF)246272706791
111MODO3DESCHUTES-AT MOODY NR BIGGS08-22-2016DISCHARGE (KAF)1110117594
112TDAO3COLUMBIA-THE DALLES DAM08-22-2016INFLOW (KAF)252982881988
113PITW1KLICKITAT-NEAR PITT08-22-2016DISCHARGE (KAF)198198100
114HODO3HOOD-NEAR TUCKER BRIDGE08-22-2016DISCHARGE (KAF)143137105
115UNDW1WHITE SALMON-NEAR UNDERWOOD08-22-2016DISCHARGE (KAF)193168115
116BONO3COLUMBIA-BONNEVILLE DAM08-22-2016INFLOW (KAF)25831MM